User: anonymous   Login
Location: Brno
(49.2000°N, 16.6330°E)
Time: 01:30:02
(UTC+01:00)
Language:

BREEZE M DEB (TANK) - Orbit

View from above orbital plane
View from above orbital plane
View from above satellite
View from above satellite

Ground track
Ground track

The orbit data is extracted from the following two-line orbital elements,

1 28359U 04022B   14352.08814130  .00004269  00000-0  66597-3 0  3132
2 28359 049.5099 232.9855 4701229 176.1961 352.1767 06.12663886228969
Epoch (UTC): 18 December 2014 02:06:55
Eccentricity: 0.4701229
inclination: 49.5099°
perigee height: 307 km
apogee height: 12169 km
right ascension of ascending node: 232.9855°
argument of perigee: 176.1961°
revolutions per day: 6.12663886
mean anomaly at epoch: 352.1767°
orbit number at epoch: 22896

The dashed part of the orbit path shows where the satellite is in the earth's shadow,  

DLR